{"data":{"norad_id":68000,"intl_designator":"2026-039Q","name":"STARLINK-36931","alt_names":[],"object_type":"PAYLOAD","status":"ACTIVE","operator":null,"country":"US","launch_date":"2026-02-27","launch_site_code":"AFETR","launch_vehicle":null,"mission":null,"orbit_class":"UNKNOWN","rcs_meters":null,"size_class":null,"mass_kg":null,"dimensions":null,"purposes":["comms"],"wikipedia_slug":null,"has_3d_model":false,"image_url":null,"decayed_at":null,"tle_current":{"epoch":"2026-05-24T23:08:56.134176Z","epoch_age_seconds":74943,"freshness":"FRESH","line1":"1 68000U 26039Q   26144.96453859  .00029525  00000+0  10778-2 0  9997","line2":"2 68000  43.0038 337.7351 0002073 259.0456 101.0162 15.27589661 13371","mean_motion":15.27589661,"eccentricity":0.0002073,"inclination_deg":43.0038,"raan_deg":337.7351,"arg_perigee_deg":259.0456,"mean_anomaly_deg":101.0162,"bstar":0.0010778,"rev_number":1337,"period_min":94.26615253846,"perigee_km":481.59784980173,"apogee_km":484.44248556345,"semimajor_km":6861.1571676826,"source":"CELESTRAK","updated_at":"2026-05-25T13:38:21.781849Z"}}}